Date String (YYYY-MM-DD hh:mm:ss) UTC,Instrument flags,Ambient pressure (hPa),Sample flow (lpm),Bypass flow (lpm),Sample temperature (°C),Ambient temperature (°C),ASC tube jacket temperature (°C),LED temperature (°C),Box temperature (°C),Sample RH (%),Span deviation,Mass concentration (μg/m³),Mass concentration (μg/m³),Mass concentration (μg/m³)
DateTimeUTC,F1_M11,P_M11,Q1_M11,Q2_M11,T1_M11,T2_M11,T3_M11,T4_M11,T5_M11,U1_M11,ZSPAN_M11,X2_M11,X0_M11,X1_M11
2022-12-28 23:00:00,,0810.1,5.01,0.00,25.6,24.3,00.0,34.4,27.4,15.7,0000.0,0002.88,0007.80,0002.45
2022-12-28 23:01:00,,0810.1,5.01,0.00,25.6,24.3,00.0,34.4,27.4,15.6,0000.0,0002.89,0007.83,0002.42
2022-12-28 23:02:00,,0810.1,5.00,0.00,25.6,24.3,00.0,34.4,27.4,15.7,0000.0,0002.88,0006.33,0002.39
2022-12-28 23:03:00,,0810.1,5.00,0.00,25.6,24.3,00.0,34.4,27.4,15.8,0000.0,0002.87,0004.21,0002.36
2022-12-28 23:04:00,,0810.1,5.00,0.00,25.6,24.3,00.0,34.5,27.5,15.8,0000.0,0002.86,0004.09,0002.34
2022-12-28 23:05:00,,0810.2,5.00,0.00,25.6,24.3,00.0,34.5,27.4,15.8,0000.0,0002.82,0003.99,0002.33
2022-12-28 23:06:00,,0810.2,5.01,0.00,25.6,24.3,00.0,34.5,27.5,15.8,0000.0,0002.76,0003.91,0002.30
2022-12-28 23:07:00,,0810.2,5.00,0.00,25.7,24.3,00.0,34.5,27.5,15.8,0000.0,0002.70,0003.81,0002.26
2022-12-28 23:08:00,,0810.2,5.00,0.00,25.7,24.3,00.0,34.5,27.4,15.7,0000.0,0002.64,0003.74,0002.26
2022-12-28 23:09:00,,0810.2,4.99,0.00,25.6,24.1,00.0,34.5,27.4,15.7,0000.0,0002.63,0003.71,0002.25
2022-12-28 23:10:00,,0810.2,5.00,0.00,25.6,24.1,00.0,34.5,27.4,15.7,0000.0,0002.61,0003.53,0002.24
2022-12-28 23:11:00,,0810.2,5.01,0.00,25.6,24.1,00.0,34.5,27.4,15.7,0000.0,0002.60,0003.49,0002.25
2022-12-28 23:12:00,,0810.2,5.00,0.00,25.6,24.1,00.0,34.5,27.4,15.8,0000.0,0002.57,0003.40,0002.27
2022-12-28 23:13:00,,0810.2,5.01,0.00,25.6,24.2,00.0,34.5,27.4,15.9,0000.0,0002.54,0003.29,0002.26
2022-12-28 23:14:00,,0810.2,5.00,0.00,25.6,24.2,00.0,34.5,27.4,15.8,0000.0,0002.56,0003.24,0002.28
2022-12-28 23:15:00,,0810.2,4.99,0.00,25.6,24.2,00.0,34.5,27.5,15.8,0000.0,0002.59,0003.71,0002.31
2022-12-28 23:16:00,,0810.2,5.00,0.00,25.6,24.2,00.0,34.5,27.5,15.8,0000.0,0002.68,0004.07,0002.39
2022-12-28 23:17:00,,0810.2,5.00,0.00,25.6,24.2,00.0,34.5,27.4,15.9,0000.0,0002.81,0004.31,0002.49
2022-12-28 23:18:00,,0810.3,5.01,0.00,25.6,24.2,00.0,34.5,27.5,16.1,0000.0,0002.91,0004.57,0002.60
2022-12-28 23:19:00,,0810.3,5.00,0.00,25.6,24.3,00.0,34.5,27.5,16.5,0000.0,0003.09,0004.99,0002.74
2022-12-28 23:20:00,,0810.3,5.00,0.00,25.6,24.2,00.0,34.5,27.5,16.5,0000.0,0003.19,0005.42,0002.85
2022-12-28 23:21:00,,0810.3,4.99,0.00,25.6,24.2,00.0,34.5,27.5,16.4,0000.0,0003.25,0005.71,0002.93
2022-12-28 23:22:00,,0810.3,4.99,0.00,25.6,24.2,00.0,34.5,27.5,16.4,0000.0,0003.32,0005.96,0003.00
2022-12-28 23:23:00,,0810.3,5.00,0.00,25.6,24.2,00.0,34.5,27.5,16.6,0000.0,0003.37,0006.03,0003.06
2022-12-28 23:24:00,,0810.4,5.00,0.00,25.6,24.2,00.0,34.5,27.5,16.6,0000.0,0003.44,0006.20,0003.13
2022-12-28 23:25:00,,0810.3,5.00,0.00,25.6,24.1,00.0,34.5,27.4,16.4,0000.0,0003.48,0006.29,0003.17
2022-12-28 23:26:00,,0810.4,5.00,0.00,25.5,24.0,00.0,34.5,27.4,16.5,0000.0,0003.54,0006.03,0003.21
2022-12-28 23:27:00,,0810.3,5.00,0.00,25.5,24.0,00.0,34.5,27.4,16.8,0000.0,0003.63,0006.00,0003.29
2022-12-28 23:28:00,,0810.4,5.00,0.00,25.5,24.1,00.0,34.4,27.4,16.9,0000.0,0003.72,0006.14,0003.37
2022-12-28 23:29:00,,0810.4,5.00,0.00,25.5,24.1,00.0,34.4,27.4,16.9,0000.0,0003.76,0006.51,0003.42
2022-12-28 23:30:00,,0810.4,5.00,0.00,25.5,24.1,00.0,34.4,27.4,16.9,0000.0,0003.78,0007.21,0003.44
2022-12-28 23:31:00,,0810.4,5.00,0.00,25.5,24.1,00.0,34.4,27.4,16.9,0000.0,0003.80,0007.12,0003.49
2022-12-28 23:32:00,,0810.3,5.00,0.00,25.5,24.2,00.0,34.4,27.4,16.9,0000.0,0003.84,0007.09,0003.55
2022-12-28 23:33:00,,0810.3,5.01,0.00,25.5,24.2,00.0,34.4,27.4,16.9,0000.0,0003.90,0007.32,0003.61
2022-12-28 23:34:00,,0810.3,4.99,0.00,25.5,24.1,00.0,34.4,27.4,17.0,0000.0,0003.97,0007.91,0003.69
2022-12-28 23:35:00,,0810.4,5.00,0.00,25.5,24.1,00.0,34.4,27.3,16.9,0000.0,0003.99,0008.10,0003.71
2022-12-28 23:36:00,,0810.4,5.02,0.00,25.5,24.1,00.0,34.4,27.3,17.0,0000.0,0004.01,0008.35,0003.74
2022-12-28 23:37:00,,0810.4,5.00,0.00,25.5,24.1,00.0,34.4,27.3,17.1,0000.0,0004.04,0009.03,0003.78
2022-12-28 23:38:00,,0810.4,5.00,0.00,25.5,24.1,00.0,34.4,27.3,17.2,0000.0,0004.01,0009.00,0003.74
2022-12-28 23:39:00,,0810.5,5.00,0.00,25.5,24.1,00.0,34.4,27.3,17.2,0000.0,0003.94,0009.43,0003.68
2022-12-28 23:40:00,,0810.4,5.00,0.00,25.4,23.8,00.0,34.4,27.2,17.4,0000.0,0003.87,0009.57,0003.62
2022-12-28 23:41:00,,0810.4,5.00,0.00,25.4,23.7,00.0,34.4,27.1,17.6,0000.0,0003.78,0008.78,0003.54
2022-12-28 23:42:00,,0810.4,5.00,0.00,25.3,23.7,00.0,34.3,27.1,17.6,0000.0,0003.70,0008.61,0003.46
2022-12-28 23:43:00,,0810.5,5.00,0.00,25.3,23.8,00.0,34.3,27.1,17.7,0000.0,0003.65,0008.49,0003.39
2022-12-28 23:44:00,,0810.4,5.00,0.00,25.3,23.9,00.0,34.3,27.2,17.8,0000.0,0003.58,0008.35,0003.32
2022-12-28 23:45:00,,0810.4,5.01,0.00,25.3,23.9,00.0,34.3,27.2,17.8,0000.0,0003.52,0007.87,0003.24
2022-12-28 23:46:00,,0810.5,5.01,0.00,25.4,24.0,00.0,34.3,27.2,17.8,0000.0,0003.46,0007.65,0003.19
2022-12-28 23:47:00,,0810.5,5.00,0.00,25.4,24.0,00.0,34.3,27.2,17.8,0000.0,0003.41,0007.36,0003.15
2022-12-28 23:48:00,,0810.4,4.99,0.00,25.4,24.0,00.0,34.3,27.2,17.8,0000.0,0003.35,0006.46,0003.09
2022-12-28 23:49:00,,0810.5,5.00,0.00,25.4,24.0,00.0,34.3,27.2,17.9,0000.0,0003.30,0006.38,0003.02
2022-12-28 23:50:00,,0810.5,5.00,0.00,25.4,24.1,00.0,34.3,27.3,18.0,0000.0,0003.25,0005.69,0002.94
2022-12-28 23:51:00,,0810.5,4.99,0.00,25.4,24.1,00.0,34.3,27.3,18.0,0000.0,0003.24,0005.95,0002.91
2022-12-28 23:52:00,,0810.5,5.01,0.00,25.4,24.1,00.0,34.3,27.3,18.0,0000.0,0003.23,0006.07,0002.90
2022-12-28 23:53:00,,0810.5,5.00,0.00,25.4,24.1,00.0,34.3,27.3,18.1,0000.0,0003.23,0006.15,0002.89
2022-12-28 23:54:00,,0810.5,4.99,0.00,25.4,24.1,00.0,34.3,27.3,18.2,0000.0,0003.23,0006.36,0002.87
2022-12-28 23:55:00,,0810.6,5.00,0.00,25.5,24.1,00.0,34.3,27.3,18.3,0000.0,0003.20,0007.09,0002.84
2022-12-28 23:56:00,,0810.5,5.00,0.00,25.5,24.1,00.0,34.3,27.3,18.5,0000.0,0003.16,0006.78,0002.83
2022-12-28 23:57:00,,0810.5,5.00,0.00,25.5,24.1,00.0,34.3,27.4,18.5,0000.0,0003.15,0006.70,0002.81
2022-12-28 23:58:00,,0810.5,5.01,0.00,25.5,24.1,00.0,34.3,27.3,18.5,0000.0,0003.15,0006.99,0002.79
2022-12-28 23:59:00,,0810.5,5.00,0.00,25.5,24.1,00.0,34.3,27.3,18.6,0000.0,0003.13,0006.56,0002.78
